Regional Weather Roundup
Issued by NWS Little Rock, AR

Home | Current Version | Previous Version | Text Only | Print | Product List | Glossary Off
Versions: 1 2 3 4 5 6 7 8 9 10 11 12 13 14 15 16 17 18 19 20 21 22 23 24 25 26 27 28 29 30 31 32 33 34

000
ASUS44 KLZK 221212
RWRLZK

WEATHER ROUNDUP FOR ARKANSAS
NATIONAL WEATHER SERVICE LITTLE ROCK AR
700 AM CDT TUE AUG 22 2017

NOTE: "FAIR" INDICATES FEW OR NO CLOUDS BELOW 12,000 FEET WITH NO
SIGNIFICANT WEATHER AND/OR OBSTRUCTIONS TO VISIBILITY.

ARZ001-003-010-029-221300-
NORTHWEST ARKANSAS

CITY           SKY/WX    TMP DP  RH WIND       PRES   REMARKS
FAYETTEVILLE   CLEAR     73  71  93 SW5       30.06R
6HR MIN TEMP:  73; 6HR MAX TEMP:  75;

FORT SMITH     CLEAR     75  75 100 NE3       30.03R
6HR MIN TEMP:  74; 6HR MAX TEMP:  79;

HARRISON       CLEAR     77  69  76 SW9       30.04R
6HR MIN TEMP:  73; 6HR MAX TEMP:  77;

BENTONVILLE    CLEAR     73  70  88 SW7       30.06R
6HR MIN TEMP:  73; 6HR MAX TEMP:  77;

ROGERS         CLEAR     74  71  91 SW7       30.07R
6HR MIN TEMP:  74; 6HR MAX TEMP:  77;

HIGHFILL       PTCLDY    74  72  93 SW8       30.06R
6HR MIN TEMP:  73; 6HR MAX TEMP:  76;

SPRINGDALE     CLEAR     75  72  88 SW6       30.07R
$$

ARZ004-005-016-221300-
NORTH CENTRAL ARKANSAS

CITY           SKY/WX    TMP DP  RH WIND       PRES   REMARKS
FLIPPIN        CLEAR     72  66  83 S3        29.99R
6HR MIN TEMP:  72; 6HR MAX TEMP:  79;

MTN HOME       CLEAR     74  73  97 SW5       30.01R
6HR MIN TEMP:  73; 6HR MAX TEMP:  76;

$$

ARZ040-041-221300-
WEST CENTRAL ARKANSAS

CITY           SKY/WX    TMP DP  RH WIND       PRES   REMARKS
MENA           CLEAR     73  72  94 CALM      30.09R
MOUNT IDA      CLEAR     72  69  90 CALM      30.05R FOG
6HR MIN TEMP:  72; 6HR MAX TEMP:  77;

$$

ARZ009-017-025-026-028-221300-
NORTHEAST ARKANSAS

CITY           SKY/WX    TMP DP  RH WIND       PRES   REMARKS
CORNING        FAIR      75  75 100 S7        30.00R
JONESBORO      CLOUDY    77  77 100 SW6       30.01S
6HR MIN TEMP:  76; 6HR MAX TEMP:  79;

NEWPORT        CLEAR     75  74  96 S7        30.02S FOG
6HR MIN TEMP:  74; 6HR MAX TEMP:  77;

WALNUT RIDGE   MOCLDY    73  72  94 S7        30.00S
6HR MIN TEMP:  73; 6HR MAX TEMP:  79;

BLYTHEVILLE    CLEAR     75  74  96 SW7       30.02S
6HR MIN TEMP:  75; 6HR MAX TEMP:  79;

$$

ARZ022-023-033-042-044-221300-
CENTRAL ARKANSAS

CITY           SKY/WX    TMP DP  RH WIND       PRES   REMARKS
LITTLE ROCK    PTCLDY    74  74 100 SW3       30.04R
6HR MIN TEMP:  74; 6HR MAX TEMP:  79;

N LITTLE ROCK    N/A     77  73  89 SW3       30.03
6HR MIN TEMP:  77; 6HR MAX TEMP:  80;

JACKSONVILLE   CLEAR     75  75 100 CALM      30.03S
6HR MIN TEMP:  74; 6HR MAX TEMP:  80;

CONWAY           N/A     75  75 100 CALM      30.01S
SEARCY         CLEAR     75  75 100 S3        30.04S FOG
6HR MIN TEMP:  73; 6HR MAX TEMP:  77;

HOT SPRINGS    CLEAR     76  75  97 CALM      30.05S
6HR MIN TEMP:  76; 6HR MAX TEMP:  79;

RUSSELLVILLE   CLEAR     73  73 100 CALM      30.03R FOG
6HR MIN TEMP:  73; 6HR MAX TEMP:  76;

CLINTON        FOG       72  72 100 CALM      30.03S VSB<1/4
$$

ARZ036-221300-
EAST ARKANSAS

CITY           SKY/WX    TMP DP  RH WIND       PRES   REMARKS
WEST MEMPHIS   CLEAR     75  74  96 SW3       30.02S
6HR MIN TEMP:  73; 6HR MAX TEMP:  77;

$$

ARZ050-053-066-070-073-221300-
SOUTHWEST ARKANSAS

CITY           SKY/WX    TMP DP  RH WIND       PRES   REMARKS
ARKADELPHIA    FAIR      73  73 100 CALM      30.05S FOG
6HR MIN TEMP:  72; 6HR MAX TEMP:  75;

CAMDEN         CLEAR     73  72  94 CALM      30.05R FOG
TEXARKANA      CLEAR     75  74  96 CALM      30.05R
6HR MIN TEMP:  74; 6HR MAX TEMP:  78;

EL DORADO      CLEAR     73  72  96 CALM      30.06R FOG
6HR MIN TEMP:  73; 6HR MAX TEMP:  76;

DE QUEEN       FOG       71  71 100 CALM      30.04R VSB 1
6HR MIN TEMP:  71; 6HR MAX TEMP:  75;

$$

ARZ056-057-069-221300-
SOUTHEAST ARKANSAS

CITY           SKY/WX    TMP DP  RH WIND       PRES   REMARKS
PINE BLUFF     CLEAR     73  71  93 S3        30.04S FOG
6HR MIN TEMP:  73; 6HR MAX TEMP:  78;

MONTICELLO     CLEAR     76  72  87 SW6       30.05S
6HR MIN TEMP:  74; 6HR MAX TEMP:  77;


$$






USA.gov is the U.S. government's official web portal to all federal, state and local government web resources and services.